Tracking 29089 objects as of 12-Jul-2024
HD Live streaming from Space Station
objects crossing your sky now

STARLINK-6315

Track STARLINK-6315 now!
10-day predictions
STARLINK-6315 is classified as:


NORAD ID: 57236
Int'l Code: 2023-094U
Perigee: 565.3 km
Apogee: 567.2 km
Inclination: 43.0 °
Period: 95.8 minutes
Semi major axis: 6937 km
RCS: Unknown
Launch date: July 7, 2023
Source: United States (US)
Launch site: AIR FORCE WESTERN TEST RANGE (AFWTR)
Your satellite tracking list
Your tracking list is empty




NASA's NSSDC Master Catalog

Two Line Element Set (TLE):
1 57236U 23094U   24194.34259313  .00000197  00000-0  29676-4 0  9992
2 57236  43.0053  67.1684 0001361 269.1441  90.9245 15.02536700 56201
Source of the keplerian elements: AFSPC